Location: Banff
(51.1667°N, 115.5667°W)
Time: 06:56:35
(UTC+00:00)

N. Korean satellite - Pass Details

Date: 01 December 2022
Orbit: 407 x 442 km, 97.3° (Epoch: 04 February)

Event Time Altitude Azimuth Distance (km) Brightness Sun altitude
Rises 14:45:50 0° 354° (N) 2,530 9.9 -6.0°
Reaches altitude 10° 14:49:51 10° 308° (NW) 1,641 8.6 -5.4°
Maximum altitude 14:50:10 10° 303° (WNW) 1,634 8.6 -5.4°
Drops below altitude 10° 14:50:28 10° 298° (WNW) 1,639 8.5 -5.3°
Sets 14:54:28 0° 251° (WSW) 2,497 9.8 -4.8°
